FW7898 Weather Reports


time (UTC)temp
C
wind
direction
speed
KPH
gust
KPH
rain 1hr
cm
rain 24hr
cm
rain mn
cm
humidity
%
barometer
mb
20260507213109 28 360 11.3 24.1 0.00 0.00 0.00 24 1010.8
20260507211558 28 360 8.0 29.0 0.00 0.00 0.00 25 1010.9
20260507210056 28 360 12.9 24.1 0.00 0.00 0.00 25 1010.9
20260507204607 28 360 14.5 24.1 0.00 0.00 0.00 25 1010.9
20260507203058 28 360 9.7 22.5 0.00 0.00 0.00 26 1011.0
20260507201557 28 360 8.0 22.5 0.00 0.00 0.00 29 1011.3
20260507200057 29 360 8.0 19.3 0.00 0.00 0.00 27 1011.3
20260507194558 28 360 8.0 17.7 0.00 0.00 0.00 29 1011.6
20260507193109 28 360 12.9 20.9 0.00 0.00 0.00 29 1011.7
20260507191559 28 360 3.2 12.9 0.00 0.00 0.00 29 1011.7
20260507190105 28 360 11.3 19.3 0.00 0.00 0.00 26 1011.9
20260507184559 28 0 0.0 14.5 0.00 0.00 0.00 26 1012.0
20260507183100 28 360 11.3 17.7 0.00 0.00 0.00 26 1012.1
20260507181558 27 360 1.6 17.7 0.00 0.00 0.00 27 1012.2
20260507180105 27 0 1.6 16.1 0.00 0.00 0.00 28 1012.3
20260507174559 26 0 0.0 6.4 0.00 0.00 0.00 31 1012.3
20260507173101 26 360 3.2 12.9 0.00 0.00 0.00 31 1012.6
20260507171602 25 360 3.2 16.1 0.00 0.00 0.00 33 1012.5
20260507170059 25 360 3.2 16.1 0.00 0.00 0.00 33 1012.7
20260507164601 25 360 3.2 14.5 0.00 0.00 0.00 35 1012.9
20260507163105 24 360 3.2 22.5 0.00 0.00 0.00 36 1012.9
20260507161559 24 360 0.0 9.7 0.00 0.00 0.00 39 1012.8
20260507154558 23 0 0.0 3.2 0.00 0.00 0.00 45 1012.8
20260507153058 22 0 0.0 6.4 0.00 0.00 0.00 51 1012.7
20260507151559 21 360 0.0 3.2 0.00 0.00 0.00 55 1012.6
20260507150058 20 0 0.0 4.8 0.00 0.00 0.00 60 1012.7
20260507144602 20 0 0.0 1.6 0.00 0.00 0.00 62 1012.5
20260507143102 19 0 0.0 1.6 0.00 0.00 0.00 61 1012.6
20260507141603 17 0 0.0 1.6 0.00 0.00 0.00 62 1012.4
20260507140125 15 0 0.0 0.0 0.00 0.00 0.00 61 1012.5
20260507134558 13 0 0.0 0.0 0.00 0.00 0.00 63 1012.2
20260507133100 12 0 0.0 1.6 0.00 0.00 0.00 65 1012.1
20260507131614 11 0 0.0 1.6 0.00 0.00 0.00 66 1011.8
20260507130111 10 0 0.0 1.6 0.00 0.00 0.00 67 1011.8
20260507124611 10 0 0.0 0.0 0.00 0.00 0.00 68 1011.5
20260507123101 10 0 0.0 1.6 0.00 0.00 0.00 68 1011.6
20260507121602 10 0 0.0 1.6 0.00 0.00 0.00 70 1011.4
20260507120057 10 0 0.0 0.0 0.00 0.00 0.00 70 1011.3
20260507114606 11 0 0.0 0.0 0.00 0.00 0.00 69 1011.3
20260507113057 11 0 0.0 0.0 0.00 0.00 0.00 68 1011.2
20260507111559 11 0 0.0 0.0 0.00 0.00 0.00 68 1011.2
20260507110059 11 0 0.0 0.0 0.00 0.00 0.00 68 1011.3
20260507104557 11 0 0.0 0.0 0.00 0.00 0.00 70 1011.3
20260507103059 11 0 0.0 0.0 0.00 0.00 0.00 69 1011.2
20260507101557 11 261 0.0 1.6 0.00 0.00 0.00 68 1011.4
20260507100059 11 0 0.0 1.6 0.00 0.00 0.00 69 1011.6
20260507094557 12 0 0.0 0.0 0.00 0.00 0.00 70 1011.6
20260507093058 12 0 0.0 0.0 0.00 0.00 0.00 70 1011.6
20260507091606 12 0 0.0 0.0 0.00 0.00 0.00 69 1011.7
20260507090056 12 0 0.0 1.6 0.00 0.00 0.00 67 1011.7
20260507084559 12 0 0.0 0.0 0.00 0.00 0.00 66 1011.8
20260507083102 12 0 0.0 0.0 0.00 0.00 0.00 65 1011.9
20260507081559 12 0 0.0 0.0 0.00 0.00 0.00 63 1011.9
20260507080135 13 0 0.0 0.0 0.00 0.00 0.00 62 1012.1
20260507074605 13 0 0.0 1.6 0.00 0.00 0.00 61 1012.2
20260507073111 14 0 0.0 0.0 0.00 0.00 0.00 59 1012.3
20260507071606 14 0 0.0 1.6 0.00 0.00 0.00 56 1012.3
20260507070057 15 0 0.0 1.6 0.00 0.00 0.00 55 1012.3
20260507064600 14 0 0.0 1.6 0.00 0.00 0.00 55 1012.2
20260507063102 14 0 0.0 0.0 0.00 0.00 0.00 55 1012.1
20260507061559 15 0 0.0 0.0 0.00 0.00 0.00 54 1012.2
20260507060103 16 0 0.0 0.0 0.00 0.00 0.00 50 1012.3
20260507054605 16 0 0.0 0.0 0.00 0.00 0.00 46 1012.4
20260507053100 17 0 0.0 0.0 0.00 0.00 0.00 45 1012.3
20260507051601 17 0 0.0 0.0 0.00 0.00 0.00 44 1012.3
20260507050100 17 0 0.0 0.0 0.00 0.00 0.00 44 1012.3
20260507044623 18 0 0.0 1.6 0.00 0.00 0.00 45 1012.2
20260507043058 18 0 0.0 1.6 0.00 0.00 0.00 48 1012.1
20260507041604 17 0 0.0 1.6 0.00 0.00 0.00 48 1012.0
20260507040110 17 0 0.0 0.0 0.00 0.00 0.00 50 1012.0
20260507034603 18 0 0.0 0.0 0.00 0.00 0.00 48 1011.7
20260507033058 20 0 0.0 0.0 0.00 0.00 0.00 45 1011.6
20260507031602 21 0 0.0 0.0 0.00 0.00 0.00 42 1011.6
20260507030100 22 0 0.0 1.6 0.00 0.00 0.00 38 1011.3
20260507024602 23 263 0.0 3.2 0.00 0.00 0.00 37 1011.2
20260507023100 23 263 1.6 9.7 0.00 0.00 0.00 37 1011.3
20260507021558 23 263 4.8 17.7 0.00 0.00 0.00 37 1011.3
20260507020104 24 360 8.0 20.9 0.00 0.00 0.00 37 1011.3
20260507014608 25 360 8.0 19.3 0.00 0.00 0.00 41 1011.3
20260507013059 25 360 12.9 20.9 0.00 0.00 0.00 41 1011.2
20260507011604 25 360 12.9 22.5 0.00 0.00 0.00 39 1011.1
20260507010059 25 360 9.7 22.5 0.00 0.00 0.00 39 1011.1
20260507004602 25 360 16.1 25.7 0.00 0.00 0.00 39 1011.2
20260507003100 25 360 19.3 29.0 0.00 0.00 0.00 39 1011.1
20260507001614 25 360 17.7 27.4 0.00 0.00 0.00 39 1010.9
20260506234603 25 360 19.3 29.0 0.00 0.00 0.00 41 1011.0
20260506233059 25 360 20.9 29.0 0.00 0.00 0.00 42 1010.9
20260506231559 25 360 19.3 32.2 0.00 0.00 0.00 45 1011.2
20260506230059 25 360 20.9 32.2 0.00 0.00 0.00 44 1011.4
20260506224559 26 360 16.1 25.7 0.00 0.00 0.00 42 1011.3
20260506223057 26 360 17.7 29.0 0.00 0.00 0.00 39 1011.3
20260506221601 26 360 17.7 29.0 0.00 0.00 0.00 40 1011.5
20260506220108 26 360 16.1 27.4 0.00 0.00 0.00 38 1011.7
20260506214557 27 360 12.9 30.6 0.00 0.00 0.00 40 1012.0